1487026801.2,54198,10.5,74318.0,-7.81,-18.83,-18.17,0,*52
1487026802.47,54199,10.5,74318.5,-7.81,-18.79,-18.01,0,*51
1487026803.73,54200,10.5,74316.0,-7.81,-18.79,-18.01,0,*52
1487026804.97,54201,10.5,74316.0,-7.79,-18.79,-18.01,0,*54
1487026806.21,54202,10.5,74316.5,-7.79,-18.83,-18.01,0,*52
1487026807.44,54203,10.5,74316.8,-7.79,-18.83,-18.01,0,*53
1487026808.65,54204,10.5,74318.8,-7.79,-18.83,-18.17,0,*53
1487026809.86,54205,10.5,74314.8,-7.79,-18.83,-18.07,0,*53
1487026811.13,54206,10.5,74316.5,-7.81,-18.93,-18.07,0,*56
1487026812.37,54207,10.5,74314.0,-7.79,-18.83,-18.01,0,*57
1487026813.61,54208,10.5,74316.8,-7.79,-18.83,-18.01,0,*58
1487026814.84,54209,10.5,74318.5,-7.79,-18.83,-18.01,0,*59
1487026816.08,54210,10.5,74316.5,-7.79,-18.93,-18.07,0,*56
1487026817.34,54211,10.5,74316.0,-7.77,-18.89,-18.11,0,*55
1487026818.58,54212,10.5,74316.0,-7.79,-18.93,-18.07,0,*54
1487026819.84,54213,10.5,74318.8,-7.79,-18.89,-17.97,0,*58
1487026821.1,54214,10.5,74316.0,-7.79,-18.93,-17.93,0,*50
1487026822.34,54215,10.5,74316.8,-7.79,-18.99,-18.01,0,*5F
1487026823.61,54216,10.5,74316.0,-7.79,-18.93,-18.01,0,*56
1487026824.82,54217,10.5,74318.3,-7.79,-18.99,-18.07,0,*5B
1487026826.11,54218,10.5,74318.0,-7.77,-18.93,-18.01,0,*56
1487026827.39,54219,10.5,74316.0,-7.77,-18.93,-18.01,0,*57
1487026828.61,54220,10.5,74320.3,-7.79,-18.99,-18.07,0,*5F
1487026829.82,54221,10.5,74320.3,-7.79,-18.99,-18.07,0,*5E
1487026831.11,54222,10.5,74320.3,-7.77,-18.93,-18.01,0,*5F
1487026832.4,54223,10.5,74316.0,-7.77,-18.93,-17.97,0,*5E
1487026833.64,54224,10.5,74320.8,-7.79,-18.99,-18.01,0,*5D
1487026834.87,54225,10.5,74320.3,-7.79,-18.99,-18.01,0,*5C
1487026836.1,54226,10.5,74322.0,-7.79,-19.13,-18.07,0,*5A
1487026837.36,54227,10.5,74324.0,-7.77,-19.03,-17.97,0,*52
1487026838.62,54228,10.5,74326.8,-7.77,-19.07,-18.01,0,*59
1487026839.85,54229,10.5,74322.5,-7.79,-19.07,-18.01,0,*56
1487026841.11,54230,10.5,74326.3,-7.77,-19.03,-17.97,0,*54
1487026842.35,54231,10.5,74320.5,-7.79,-18.99,-17.93,0,*5D
1487026843.58,54232,10.5,74324.3,-7.79,-19.07,-18.01,0,*5C
1487026844.85,54233,10.5,74328.0,-7.77,-19.07,-17.97,0,*53
1487026846.11,54234,10.5,74320.5,-7.77,-19.03,-17.97,0,*50
1487026847.37,54235,10.5,74318.0,-7.77,-19.07,-18.01,0,*55
1487026848.59,54236,10.5,74318.0,-7.79,-19.13,-18.07,0,*5B
1487026849.85,54237,10.5,74316.3,-7.77,-19.03,-18.01,0,*53
1487026851.09,54238,10.5,74312.8,-7.77,-19.03,-17.87,0,*5D
1487026852.32,54239,10.5,74308.5,-7.77,-19.03,-17.87,0,*5C
1487026853.56,54240,10.5,74308.5,-7.77,-19.03,-17.87,0,*52
1487026854.82,54241,10.5,74306.8,-7.77,-19.07,-17.97,0,*56
1487026856.08,54242,10.5,74302.5,-7.77,-19.07,-18.01,0,*55
1487026857.35,54243,10.5,74306.5,-7.77,-19.23,-18.11,0,*53
1487026858.59,54244,10.5,74308.0,-7.75,-19.17,-18.01,0,*50
1487026859.83,54245,10.5,74310.0,-7.75,-19.31,-18.11,0,*54
1487026861.1,54246,10.5,74308.8,-7.77,-19.17,-18.01,0,*50
1487026862.31,54247,10.5,74308.8,-7.75,-19.03,-17.87,0,*57
1487026863.55,54248,10.5,74306.3,-7.75,-19.07,-18.01,0,*5D
1487026864.79,54249,10.5,74308.5,-7.75,-19.07,-17.97,0,*5C
1487026866.04,54250,10.5,74306.5,-7.75,-19.31,-18.11,0,*50
1487026867.28,54251,10.5,74306.5,-7.75,-19.23,-18.11,0,*52
1487026868.52,54252,10.5,74306.0,-7.75,-19.23,-18.11,0,*51
1487026869.79,54253,10.5,74306.8,-7.73,-19.31,-18.21,0,*56
1487026871.04,54254,10.5,74310.5,-7.73,-19.41,-18.21,0,*56
1487026872.27,54255,10.5,74308.0,-7.77,-19.47,-18.17,0,*50
1487026873.48,54256,10.5,74310.0,-7.75,-19.47,-18.17,0,*51
1487026874.72,54257,10.5,74310.5,-7.73,-19.47,-18.21,0,*53
1487026875.92,54258,10.5,74308.8,-7.75,-19.51,-18.25,0,*59
1487026877.13,54259,10.5,74312.0,-7.75,-19.51,-18.17,0,*59
1487026878.34,54260,10.5,74308.0,-7.75,-19.51,-18.25,0,*52
1487026879.58,54261,10.5,74310.8,-7.75,-19.51,-18.31,0,*56
1487026880.79,54262,10.5,74310.0,-7.75,-19.51,-18.25,0,*50
1487026882.02,54263,10.5,74314.5,-7.73,-19.47,-18.25,0,*50
1487026883.29,54264,10.5,74314.0,-7.75,-19.61,-18.31,0,*50
1487026884.54,54265,10.5,74312.8,-7.73,-19.41,-18.25,0,*50
1487026885.78,54266,10.5,74312.3,-7.75,-19.51,-18.31,0,*51
1487026887.05,54267,10.5,74312.5,-7.75,-19.61,-18.31,0,*53
1487026888.3,54268,10.5,74314.8,-7.75,-19.51,-18.31,0,*5F
1487026889.55,54269,10.5,74312.8,-7.73,-19.41,-18.21,0,*58
1487026890.8,54270,10.5,74312.3,-7.75,-19.51,-18.31,0,*56
1487026892.04,54271,10.5,74308.3,-7.75,-19.51,-18.31,0,*57
1487026893.28,54272,10.5,74310.0,-7.75,-19.61,-18.41,0,*50
1487026894.54,54273,10.5,74312.5,-7.73,-19.57,-18.25,0,*50
1487026895.77,54274,10.5,74312.3,-7.75,-19.65,-18.41,0,*52
1487026897.01,54275,10.5,74314.3,-7.75,-19.61,-18.41,0,*57
1487026898.24,54276,10.5,74314.8,-7.75,-19.65,-18.41,0,*50
1487026899.53,54277,10.5,74308.0,-7.73,-19.61,-18.35,0,*50
1487026900.77,54278,10.5,74308.0,-7.75,-19.61,-18.45,0,*5E
1487026901.98,54279,10.5,74308.8,-7.75,-19.51,-18.41,0,*58
1487026903.24,54280,10.5,74310.3,-7.75,-19.65,-18.55,0,*5C
1487026904.48,54281,10.5,74312.0,-7.75,-19.65,-18.45,0,*5C
1487026905.72,54282,10.5,74310.5,-7.75,-19.61,-18.41,0,*5F
1487026906.95,54283,10.5,74308.3,-7.75,-19.65,-18.41,0,*5A
1487026908.18,54284,10.5,74314.8,-7.75,-19.65,-18.41,0,*5D
1487026909.42,54285,10.5,74312.0,-7.75,-19.61,-18.45,0,*5C
1487026910.68,54286,10.5,74316.5,-7.73,-19.61,-18.41,0,*5D
1487026911.98,54287,10.5,74312.0,-7.73,-19.57,-18.35,0,*5A
1487026913.21,54288,10.5,74308.8,-7.75,-19.65,-18.45,0,*55
1487026914.45,54289,10.5,74308.8,-7.75,-19.61,-18.45,0,*50
1487026915.71,54290,10.5,74308.8,-7.73,-19.57,-18.41,0,*5F
1487026917.0,54291,10.5,74310.8,-7.73,-19.57,-18.35,0,*5D
1487026918.24,54292,10.5,74312.5,-7.75,-19.65,-18.45,0,*5E
1487026919.48,54293,10.5,74310.8,-7.75,-19.61,-18.45,0,*5B
1487026920.72,54294,10.5,74310.0,-7.75,-19.61,-18.45,0,*5C
1487026921.98,54295,10.5,74308.5,-7.75,-19.61,-18.55,0,*5C
1487026923.22,54296,10.5,74308.5,-7.75,-19.61,-18.45,0,*5E
1487026924.48,54297,10.5,74308.8,-7.75,-19.65,-18.55,0,*5A
1487026925.74,54298,10.5,74310.8,-7.73,-19.61,-18.41,0,*52
1487026927.0,54299,10.5,74314.8,-7.73,-19.61,-18.41,0,*53
1487026928.22,54300,10.5,74316.3,-7.75,-19.51,-18.45,0,*53
1487026929.45,54301,10.5,74314.0,-7.77,-19.51,-18.45,0,*50
1487026930.71,54302,10.5,74314.3,-7.77,-19.51,-18.55,0,*52
1487026931.92,54303,10.5,74318.0,-7.75,-19.47,-18.45,0,*57
1487026933.16,54304,10.5,74316.5,-7.75,-19.51,-18.55,0,*56
1487026934.42,54305,10.5,74318.0,-7.77,-19.51,-18.55,0,*55
1487026935.67,54306,10.5,74312.3,-7.77,-19.51,-18.55,0,*56
1487026936.88,54307,10.5,74316.8,-7.75,-19.47,-18.41,0,*57
1487026938.17,54308,10.5,74312.5,-7.77,-19.61,-18.55,0,*5B
1487026939.4,54309,10.5,74312.0,-7.77,-19.47,-18.45,0,*5F
1487026940.63,54310,10.5,74312.5,-7.73,-19.47,-18.49,0,*5F
1487026941.87,54311,10.5,74312.5,-7.75,-19.47,-18.55,0,*55
1487026943.08,54312,10.5,74314.3,-7.75,-19.47,-18.45,0,*57
1487026944.31,54313,10.5,74312.0,-7.75,-19.47,-18.55,0,*57
1487026945.52,54314,10.5,74316.5,-7.75,-19.47,-18.45,0,*51
1487026946.75,54315,10.5,74314.8,-7.75,-19.47,-18.55,0,*51
1487026948.01,54316,10.5,74314.0,-7.77,-19.31,-18.41,0,*54
1487026949.25,54317,10.5,74310.8,-7.77,-19.37,-18.41,0,*53
1487026950.46,54318,10.5,74314.3,-7.75,-19.37,-18.45,0,*5A
1487026951.73,54319,10.5,74312.8,-7.75,-19.31,-18.55,0,*5C
1487026952.96,54320,10.5,74314.8,-7.75,-19.31,-18.41,0,*53
1487026954.2,54321,10.5,74316.3,-7.75,-19.23,-18.41,0,*51
1487026955.43,54322,10.5,74318.0,-7.75,-19.31,-18.41,0,*51
1487026956.69,54323,10.5,74318.3,-7.77,-19.23,-18.25,0,*53
1487026957.92,54324,10.5,74314.5,-7.77,-19.17,-18.25,0,*53
1487026959.15,54325,10.5,74322.0,-7.77,-19.03,-18.17,0,*56
1487026960.41,54326,10.5,74320.8,-7.77,-18.93,-18.17,0,*5D
1487026961.64,54327,10.5,74318.5,-7.75,-18.89,-18.11,0,*53
1487026962.9,54328,10.5,74316.0,-7.75,-18.89,-18.01,0,*5D
1487026964.14,54329,10.5,74318.0,-7.75,-18.89,-18.11,0,*5D
1487026965.38,54330,10.5,74312.8,-7.75,-18.93,-18.11,0,*5E
1487026966.64,54331,10.5,74312.8,-7.73,-18.89,-18.07,0,*55
1487026967.88,54332,10.44,74310.8,-7.75,-18.93,-18.11,0,*5C
1487026969.14,54333,10.5,74318.8,-7.73,-18.89,-18.07,0,*57
1487026970.4,54334,10.5,74314.8,-7.73,-18.89,-18.07,0,*50
1487026971.66,54335,10.5,74308.5,-7.73,-18.89,-18.07,0,*51
1487026972.91,54336,10.44,74308.0,-7.73,-18.89,-18.07,0,*52
1487026974.15,54337,10.5,74312.5,-7.73,-18.83,-18.07,0,*59
1487026975.39,54338,10.5,74308.8,-7.75,-18.93,-18.17,0,*50
1487026976.62,54339,10.5,74304.0,-7.73,-19.03,-18.11,0,*59
1487026977.86,54340,10.5,74304.5,-7.73,-18.99,-18.11,0,*55
1487026979.1,54341,10.44,74306.0,-7.73,-18.99,-18.21,0,*57
1487026980.31,54342,10.5,74306.5,-7.71,-18.99,-18.11,0,*55
1487026981.51,54343,10.5,74310.0,-7.71,-19.03,-18.21,0,*55
1487026982.73,54344,10.5,74308.0,-7.71,-18.99,-18.11,0,*53
1487026983.94,54345,10.5,74310.3,-7.71,-19.03,-18.11,0,*50
1487026985.18,54346,10.5,74312.3,-7.73,-19.03,-18.11,0,*51
1487026986.44,54347,10.5,74314.0,-7.73,-18.89,-18.11,0,*53
1487026987.67,54348,10.5,74312.0,-7.73,-18.99,-18.21,0,*5E
1487026988.88,54349,10.5,74314.5,-7.71,-19.03,-18.11,0,*5C
1487026990.09,54350,10.5,74316.0,-7.71,-19.03,-18.11,0,*54
1487026991.3,54351,10.44,74310.8,-7.71,-18.99,-18.07,0,*50
1487026992.56,54352,10.44,74310.8,-7.73,-18.89,-18.11,0,*57
1487026993.82,54353,10.5,74308.5,-7.73,-18.89,-18.11,0,*56
1487026995.08,54354,10.5,74310.8,-7.73,-18.89,-18.07,0,*56
1487026996.36,54355,10.5,74306.8,-7.73,-18.89,-17.97,0,*51
1487026997.6,54356,10.5,74308.8,-7.73,-18.83,-18.07,0,*5E
1487026998.87,54357,10.5,74314.3,-7.75,-18.93,-18.01,0,*5E
1487027000.12,54358,10.5,74310.8,-7.73,-18.89,-18.07,0,*5A
1487027001.38,54359,10.5,74316.0,-7.73,-18.89,-18.11,0,*5C
1487027002.65,54360,10.5,74316.3,-7.75,-18.93,-18.01,0,*5A
1487027003.89,54361,10.44,74304.3,-7.73,-18.83,-17.83,0,*59
1487027005.14,54362,10.5,74304.3,-7.73,-18.73,-17.93,0,*54
1487027006.4,54363,10.5,74306.8,-7.73,-18.83,-17.93,0,*5A
1487027007.66,54364,10.5,74308.3,-7.73,-18.83,-17.93,0,*5D
1487027008.89,54365,10.5,74304.8,-7.75,-18.89,-17.87,0,*55
1487027010.16,54366,10.5,74310.5,-7.73,-18.83,-17.97,0,*5B
1487027011.41,54367,10.5,74310.8,-7.73,-18.83,-17.93,0,*5E
1487027012.68,54368,10.5,74308.8,-7.73,-18.89,-17.83,0,*5A
1487027013.95,54369,10.5,74310.8,-7.73,-18.89,-17.93,0,*5A
1487027015.19,54370,10.44,74310.5,-7.73,-18.83,-17.83,0,*59
1487027016.45,54371,10.5,74312.5,-7.73,-18.89,-17.83,0,*52
1487027017.71,54372,10.5,74312.8,-7.73,-18.83,-17.79,0,*5E
1487027018.95,54373,10.5,74314.3,-7.73,-18.83,-17.83,0,*5A
1487027020.19,54374,10.5,74312.8,-7.73,-18.73,-17.69,0,*56
1487027021.42,54375,10.44,74314.0,-7.73,-18.69,-17.69,0,*5C
1487027022.66,54376,10.44,74312.5,-7.73,-18.69,-17.73,0,*54
1487027023.9,54377,10.5,74312.0,-7.73,-18.69,-17.69,0,*5E
1487027025.14,54378,10.5,74312.3,-7.75,-18.69,-17.63,0,*5D
1487027026.4,54379,10.5,74314.0,-7.73,-18.69,-17.63,0,*5A
1487027027.65,54380,10.5,74312.8,-7.73,-18.73,-17.63,0,*57
1487027028.92,54381,10.5,74312.0,-7.73,-18.73,-17.59,0,*5F
1487027030.18,54382,10.44,74310.8,-7.73,-18.73,-17.59,0,*5C
1487027031.44,54383,10.5,74314.0,-7.73,-18.69,-17.59,0,*56
1487027032.7,54384,10.44,74314.5,-7.73,-18.69,-17.59,0,*51
1487027033.97,54385,10.5,74312.0,-7.73,-18.69,-17.59,0,*50
1487027035.18,54386,10.44,74312.8,-7.71,-18.69,-17.49,0,*50
1487027036.44,54387,10.5,74316.0,-7.73,-18.65,-17.45,0,*53
1487027037.67,54388,10.5,74316.5,-7.73,-18.69,-17.49,0,*5C
1487027038.91,54389,10.5,74312.8,-7.71,-18.69,-17.45,0,*53
1487027040.12,54390,10.5,74316.5,-7.71,-18.69,-17.49,0,*57
1487027041.35,54391,10.5,74314.3,-7.71,-18.69,-17.45,0,*5A
1487027042.56,54392,10.5,74314.3,-7.71,-18.69,-17.49,0,*55
1487027043.82,54393,10.44,74312.5,-7.69,-18.65,-17.45,0,*5D
1487027045.04,54394,10.5,74316.5,-7.71,-18.65,-17.35,0,*54
1487027046.27,54395,10.5,74316.0,-7.71,-18.65,-17.45,0,*52
1487027047.55,54396,10.5,74314.3,-7.69,-18.59,-17.41,0,*53
1487027048.83,54397,10.5,74308.0,-7.69,-18.59,-17.41,0,*52
1487027050.1,54398,10.5,74308.0,-7.69,-18.69,-17.55,0,*5B
1487027051.36,54399,10.44,74298.0,-7.69,-18.69,-17.45,0,*5B
1487027052.59,54400,10.5,74302.5,-7.71,-18.73,-17.59,0,*53
1487027053.83,54401,10.5,74306.3,-7.71,-18.73,-17.59,0,*52
1487027055.09,54402,10.5,74306.3,-7.69,-18.69,-17.45,0,*5E
1487027056.34,54403,10.44,74298.8,-7.71,-18.89,-17.63,0,*5C
1487027057.6,54404,10.5,74302.3,-7.69,-18.79,-17.59,0,*54
1487027058.86,54405,10.5,74302.0,-7.69,-18.83,-17.59,0,*50
1487027060.1,54406,10.44,74298.8,-7.71,-18.69,-17.45,0,*53
1487027061.36,54407,10.5,74298.8,-7.69,-18.69,-17.45,0,*5B
1487027062.62,54408,10.5,74300.3,-7.71,-18.89,-17.63,0,*57
1487027063.85,54409,10.5,74302.3,-7.71,-18.83,-17.63,0,*5C
1487027065.1,54410,10.5,74302.8,-7.71,-18.89,-17.63,0,*5E
1487027066.34,54411,10.5,74304.3,-7.71,-18.83,-17.59,0,*5C
1487027067.57,54412,10.5,74306.0,-7.71,-18.83,-17.59,0,*5F
1487027068.8,54413,10.5,74310.5,-7.71,-18.83,-17.63,0,*57
1487027070.06,54414,10.44,74308.0,-7.71,-18.89,-17.63,0,*5A
1487027071.29,54415,10.5,74312.0,-7.71,-18.79,-17.55,0,*51
1487027072.53,54416,10.44,74310.3,-7.71,-18.83,-17.59,0,*5B
1487027073.76,54417,10.5,74308.8,-7.71,-18.83,-17.59,0,*5A
1487027075.02,54418,10.44,74308.3,-7.71,-18.89,-17.59,0,*5F
1487027076.27,54419,10.5,74310.8,-7.71,-18.89,-17.63,0,*57
1487027077.52,54420,10.44,74308.5,-7.71,-18.89,-17.59,0,*54
1487027078.81,54421,10.44,74310.8,-7.69,-18.93,-17.55,0,*5B
1487027080.05,54422,10.5,74308.8,-7.71,-18.99,-17.59,0,*57
1487027081.28,54423,10.5,74310.3,-7.71,-18.99,-17.59,0,*56
1487027082.54,54424,10.5,74308.5,-7.71,-18.89,-17.59,0,*50
1487027083.77,54425,10.5,74310.0,-7.71,-18.99,-17.63,0,*59
1487027085.03,54426,10.5,74308.5,-7.69,-18.83,-17.55,0,*5D
1487027086.29,54427,10.5,74310.3,-7.69,-18.83,-17.59,0,*50
1487027087.55,54428,10.44,74308.0,-7.69,-18.99,-17.55,0,*58
1487027088.84,54429,10.5,74308.0,-7.69,-18.93,-17.59,0,*5F
1487027090.1,54430,10.5,74308.0,-7.69,-18.99,-17.55,0,*51
1487027091.39,54431,10.5,74310.5,-7.69,-18.93,-17.59,0,*56
1487027092.65,54432,10.5,74310.3,-7.69,-19.07,-17.63,0,*50
1487027093.91,54433,10.44,74308.0,-7.69,-18.99,-17.59,0,*5E
1487027095.17,54434,10.44,74308.3,-7.69,-19.07,-17.55,0,*53
1487027096.43,54435,10.5,74310.5,-7.69,-19.13,-17.63,0,*52
1487027097.7,54436,10.5,74306.8,-7.69,-19.13,-17.63,0,*51
1487027098.96,54437,10.44,74304.5,-7.69,-19.07,-17.59,0,*5C
1487027100.19,54438,10.5,74306.0,-7.71,-19.17,-17.79,0,*59
1487027101.43,54439,10.5,74310.0,-7.69,-19.13,-17.73,0,*5F
1487027102.67,54440,10.5,74308.5,-7.69,-19.13,-17.73,0,*51
1487027103.91,54441,10.5,74308.5,-7.69,-19.13,-17.73,0,*50
1487027105.13,54442,10.5,74304.5,-7.71,-19.17,-17.83,0,*51
1487027106.39,54443,10.44,74304.5,-7.69,-19.23,-17.73,0,*51
1487027107.61,54444,10.5,74304.0,-7.71,-19.17,-17.83,0,*57
1487027108.86,54445,10.5,74308.5,-7.71,-19.27,-17.83,0,*55
1487027110.1,54446,10.44,74306.8,-7.67,-19.23,-17.87,0,*51
1487027111.39,54447,10.44,74304.5,-7.69,-19.27,-17.79,0,*5B
1487027112.67,54448,10.44,74306.0,-7.69,-19.27,-17.87,0,*55
1487027113.93,54449,10.5,74306.5,-7.69,-19.23,-17.87,0,*50
1487027115.22,54450,10.44,74306.8,-7.69,-19.27,-17.93,0,*59
1487027116.5,54451,10.5,74308.5,-7.69,-19.27,-17.87,0,*5D
1487027117.77,54452,10.5,74304.5,-7.69,-19.27,-17.87,0,*5E
1487027119.03,54453,10.5,74306.0,-7.69,-19.51,-17.93,0,*5B
1487027120.31,54454,10.5,74306.3,-7.69,-19.41,-18.01,0,*59
1487027121.6,54455,10.5,74304.0,-7.69,-19.41,-18.01,0,*58
1487027122.89,54456,10.44,74304.0,-7.69,-19.57,-18.01,0,*5C
1487027124.15,54457,10.44,74306.0,-7.67,-19.57,-18.01,0,*53
1487027125.42,54458,10.5,74306.8,-7.67,-19.57,-18.01,0,*5C
1487027126.68,54459,10.44,74304.8,-7.69,-19.51,-18.01,0,*55
1487027127.92,54460,10.44,74304.0,-7.69,-19.51,-18.07,0,*59
1487027129.13,54461,10.5,74304.3,-7.71,-19.47,-18.07,0,*56
1487027130.36,54462,10.44,74304.5,-7.69,-19.51,-18.17,0,*5A
1487027131.6,54463,10.44,74306.0,-7.71,-19.61,-18.07,0,*50
1487027132.84,54464,10.5,74308.0,-7.71,-19.61,-18.21,0,*53
1487027134.1,54465,10.5,74306.5,-7.69,-19.57,-18.17,0,*5B
1487027135.36,54466,10.44,74306.3,-7.69,-19.57,-18.21,0,*5D
1487027136.62,54467,10.5,74310.8,-7.69,-19.57,-18.17,0,*59
1487027137.88,54468,10.5,74308.8,-7.69,-19.61,-18.17,0,*53
1487027139.12,54469,10.5,74304.3,-7.67,-19.57,-18.07,0,*58
1487027140.36,54470,10.44,74304.3,-7.67,-19.57,-18.21,0,*54
1487027141.6,54471,10.5,74308.3,-7.67,-19.57,-18.17,0,*50
1487027142.84,54472,10.44,74306.5,-7.67,-19.57,-18.21,0,*56
1487027144.13,54473,10.5,74306.3,-7.69,-19.61,-18.31,0,*5D
1487027145.37,54474,10.44,74306.3,-7.67,-19.71,-18.35,0,*51
1487027146.59,54475,10.44,74304.0,-7.67,-19.71,-18.45,0,*57
1487027147.83,54476,10.44,74304.3,-7.67,-19.71,-18.35,0,*53
1487027149.04,54477,10.5,74306.5,-7.67,-19.71,-18.45,0,*55
1487027150.25,54478,10.44,74306.3,-7.67,-19.71,-18.45,0,*5A
1487027151.52,54479,10.5,74308.0,-7.69,-19.61,-18.45,0,*54
1487027152.75,54480,10.5,74308.8,-7.69,-19.71,-18.45,0,*53
1487027153.98,54481,10.5,74308.0,-7.69,-19.75,-18.45,0,*56
1487027155.25,54482,10.5,74304.3,-7.69,-19.85,-18.59,0,*57
1487027156.49,54483,10.44,74304.8,-7.69,-19.75,-18.49,0,*58
1487027157.76,54484,10.5,74308.0,-7.69,-19.85,-18.59,0,*51
1487027158.99,54485,10.44,74306.8,-7.69,-19.75,-18.69,0,*5C
1487027160.19,54486,10.44,74308.5,-7.71,-19.91,-18.83,0,*58
1487027161.44,54487,10.5,74306.8,-7.69,-19.85,-18.79,0,*50
1487027162.64,54488,10.5,74308.5,-7.67,-19.91,-18.79,0,*54
1487027163.84,54489,10.44,74304.0,-7.67,-19.91,-18.83,0,*50
1487027165.07,54490,10.5,74308.8,-7.69,-19.91,-18.83,0,*56
1487027166.33,54491,10.5,74310.0,-7.69,-19.99,-18.93,0,*5E
1487027167.55,54492,10.44,74304.0,-7.69,-19.99,-18.83,0,*5C
1487027168.81,54493,10.5,74308.8,-7.69,-19.91,-18.93,0,*54
1487027170.06,54494,10.44,74304.5,-7.69,-20.05,-18.93,0,*54
1487027171.28,54495,10.5,74310.0,-7.69,-20.05,-18.99,0,*5F
1487027172.5,54496,10.5,74306.3,-7.67,-20.15,-19.07,0,*55
1487027173.72,54497,10.44,74304.5,-7.69,-20.05,-18.99,0,*5D
1487027174.94,54498,10.44,74306.0,-7.69,-20.05,-19.07,0,*54
1487027176.17,54499,10.44,74310.0,-7.69,-19.99,-19.07,0,*5A
1487027177.37,54500,10.5,74312.3,-7.71,-20.05,-19.13,0,*58
1487027178.61,54501,10.44,74304.3,-7.69,-20.15,-19.07,0,*54
1487027179.83,54502,10.44,74308.5,-7.69,-20.05,-19.07,0,*56
1487027181.08,54503,10.44,74308.5,-7.71,-20.19,-19.27,0,*51
1487027182.33,54504,10.5,74310.5,-7.69,-20.19,-19.13,0,*58
1487027183.56,54505,10.5,74312.3,-7.69,-20.05,-19.13,0,*54
1487027184.84,54506,10.5,74312.0,-7.69,-20.19,-19.23,0,*59
1487027186.09,54507,10.44,74306.8,-7.69,-20.19,-19.37,0,*5D
1487027187.31,54508,10.44,74304.8,-7.71,-20.35,-19.47,0,*52
1487027188.55,54509,10.5,74312.8,-7.67,-20.15,-19.37,0,*51
1487027189.8,54510,10.5,74312.3,-7.69,-20.15,-19.37,0,*57
1487027191.05,54511,10.5,74314.0,-7.69,-20.15,-19.37,0,*56
1487027192.31,54512,10.5,74310.8,-7.69,-20.19,-19.37,0,*59
1487027193.56,54513,10.5,74312.5,-7.69,-20.29,-19.41,0,*5A
1487027194.81,54514,10.5,74314.0,-7.69,-20.05,-19.27,0,*53
1487027196.06,54515,10.5,74314.0,-7.69,-20.15,-19.37,0,*52
1487027197.31,54516,10.44,74310.8,-7.69,-20.19,-19.51,0,*5D
1487027198.57,54517,10.5,74310.8,-7.69,-20.29,-19.57,0,*59
1487027199.82,54518,10.5,74308.5,-7.69,-20.29,-19.61,0,*53
1487027201.1,54519,10.44,74306.3,-7.69,-20.35,-19.61,0,*5F
1487027202.35,54520,10.5,74304.0,-7.69,-20.35,-19.71,0,*54
1487027203.6,54521,10.44,74304.0,-7.69,-20.35,-19.71,0,*55
1487027204.82,54522,10.44,74306.0,-7.67,-20.35,-19.71,0,*58
1487027206.08,54523,10.5,74308.8,-7.71,-20.49,-19.81,0,*5A
1487027207.29,54524,10.5,74308.5,-7.67,-20.43,-19.75,0,*5B
1487027208.53,54525,10.5,74310.8,-7.69,-20.43,-19.75,0,*54
1487027209.78,54526,10.44,74304.8,-7.69,-20.35,-19.71,0,*52
1487027211.01,54527,10.5,74306.0,-7.67,-20.35,-19.75,0,*59
1487027212.23,54528,10.44,74306.0,-7.69,-20.29,-19.71,0,*51
1487027213.47,54529,10.44,74302.5,-7.69,-20.43,-19.75,0,*58
1487027214.73,54530,10.44,74304.0,-7.69,-20.43,-19.85,0,*5F
1487027215.98,54531,10.5,74306.0,-7.69,-20.35,-19.91,0,*5A
1487027217.24,54532,10.5,74306.5,-7.69,-20.43,-19.85,0,*5D
1487027218.49,54533,10.5,74306.8,-7.69,-20.35,-19.75,0,*52
1487027219.73,54534,10.5,74306.5,-7.69,-20.43,-19.91,0,*5E
1487027220.96,54535,10.44,74308.3,-7.71,-20.49,-20.05,0,*5B
1487027222.2,54536,10.44,74310.0,-7.69,-20.59,-19.99,0,*5F
1487027223.41,54537,10.5,74308.0,-7.71,-20.39,-19.91,0,*59
1487027224.67,54538,10.44,74306.8,-7.69,-20.49,-19.99,0,*50
1487027225.91,54539,10.44,74300.5,-7.69,-20.43,-20.05,0,*54
1487027227.16,54540,10.44,74300.8,-7.69,-20.35,-19.91,0,*5C
1487027228.39,54541,10.44,74304.3,-7.69,-20.43,-19.91,0,*5C
1487027229.65,54542,10.44,74304.8,-7.69,-20.49,-20.05,0,*52
1487027230.89,54543,10.5,74304.0,-7.71,-20.49,-20.05,0,*5A
1487027232.14,54544,10.44,74306.8,-7.69,-20.35,-20.05,0,*5F
1487027233.35,54545,10.44,74302.3,-7.67,-20.43,-20.05,0,*51
1487027234.59,54546,10.44,74298.8,-7.69,-20.43,-19.99,0,*53
1487027235.8,54547,10.5,74304.0,-7.71,-20.39,-20.09,0,*55
1487027237.04,54548,10.44,74304.5,-7.69,-20.43,-20.05,0,*52
1487027238.28,54549,10.44,74302.8,-7.69,-20.43,-19.99,0,*5C
1487027239.52,54550,10.44,74302.5,-7.69,-20.43,-20.05,0,*5B
1487027240.78,54551,10.5,74306.0,-7.71,-20.49,-20.19,0,*54
1487027242.03,54552,10.44,74298.0,-7.71,-20.49,-20.19,0,*57
1487027243.29,54553,10.44,74300.0,-7.71,-20.49,-20.19,0,*56
1487027244.55,54554,10.44,74300.5,-7.69,-20.43,-20.15,0,*5E
1487027245.78,54555,10.5,74302.5,-7.67,-20.35,-20.05,0,*51
1487027247.02,54556,10.5,74306.5,-7.71,-20.63,-20.19,0,*5B
1487027248.27,54557,10.5,74310.3,-7.71,-20.53,-20.35,0,*57
1487027249.51,54558,10.44,74304.3,-7.71,-20.49,-20.25,0,*52
1487027250.77,54559,10.44,74308.5,-7.69,-20.43,-20.15,0,*53
1487027252.03,54560,10.5,74316.0,-7.71,-20.49,-20.19,0,*56
1487027253.28,54561,10.44,74310.8,-7.69,-20.35,-19.99,0,*57
1487027254.53,54562,10.44,74306.8,-7.69,-20.19,-19.91,0,*52
1487027255.78,54563,10.44,74298.0,-7.69,-20.35,-19.91,0,*5D
1487027257.01,54564,10.5,74300.8,-7.69,-20.29,-20.05,0,*50
1487027258.24,54565,10.5,74302.8,-7.69,-20.05,-19.99,0,*50
1487027259.46,54566,10.44,74298.3,-7.69,-20.29,-19.99,0,*5D
1487027260.66,54567,10.44,74298.5,-7.67,-20.29,-20.05,0,*5D
1487027261.93,54568,10.5,74300.8,-7.69,-20.35,-20.15,0,*50
1487027263.21,54569,10.5,74302.8,-7.69,-20.35,-20.19,0,*5D
1487027264.5,54570,10.5,74302.5,-7.69,-20.49,-20.19,0,*5E
1487027265.76,54571,10.44,74306.8,-7.69,-20.43,-20.19,0,*55
1487027266.99,54572,10.5,74308.3,-7.69,-20.29,-20.05,0,*57
1487027268.25,54573,10.44,74302.0,-7.71,-20.49,-20.19,0,*54
1487027269.5,54574,10.44,74302.5,-7.69,-20.43,-20.15,0,*5C
1487027270.78,54575,10.5,74310.8,-7.69,-20.35,-20.15,0,*5C
1487027272.04,54576,10.44,74306.0,-7.69,-20.43,-20.15,0,*5E
1487027273.26,54577,10.44,74300.0,-7.69,-20.29,-20.05,0,*52
1487027274.53,54578,10.5,74302.8,-7.69,-20.35,-20.15,0,*51
1487027275.81,54579,10.44,74298.8,-7.69,-20.35,-20.19,0,*5C
1487027277.06,54580,10.44,74302.5,-7.69,-20.35,-19.99,0,*58
1487027278.29,54581,10.44,74302.5,-7.71,-20.35,-20.05,0,*5F
1487027279.51,54582,10.44,74300.0,-7.69,-20.29,-19.99,0,*57
1487027280.74,54583,10.5,74308.3,-7.65,-20.39,-19.99,0,*5B
1487027281.96,54584,10.5,74306.3,-7.71,-20.29,-20.15,0,*56
1487027283.19,54585,10.5,74304.8,-7.65,-20.25,-19.99,0,*50
1487027284.42,54586,10.44,74302.5,-7.69,-20.29,-19.99,0,*53
1487027285.67,54587,10.44,74296.5,-7.69,-20.19,-20.05,0,*5E
1487027286.9,54588,10.44,74298.0,-7.67,-20.35,-20.05,0,*51
1487027288.16,54589,10.44,74298.3,-7.69,-20.43,-20.15,0,*5E
1487027289.42,54590,10.44,74296.8,-7.71,-20.49,-20.19,0,*59
1487027290.69,54591,10.5,74302.8,-7.69,-20.35,-20.15,0,*56
1487027291.95,54592,10.44,74298.8,-7.69,-20.43,-20.19,0,*58
1487027293.19,54593,10.44,74302.5,-7.71,-20.49,-20.09,0,*5B
1487027294.44,54594,10.44,74300.5,-7.69,-20.35,-19.99,0,*5D
1487027295.66,54595,10.44,74302.3,-7.69,-20.29,-19.99,0,*51
1487027296.86,54596,10.44,74302.8,-7.71,-20.29,-20.05,0,*54
1487027298.11,54597,10.44,74302.3,-7.69,-20.35,-20.05,0,*51
1487027299.32,54598,10.5,74310.8,-7.71,-20.25,-19.91,0,*51
1487027300.54,54599,10.44,74308.5,-7.69,-20.29,-19.99,0,*5D
1487027301.75,54600,10.44,74306.0,-7.71,-20.25,-19.95,0,*57
1487027303.03,54601,10.5,74306.5,-7.69,-20.15,-19.85,0,*5D
1487027304.28,54602,10.44,74292.8,-7.69,-20.15,-19.91,0,*5B